FW6591 Weather Reports


time (UTC)temp
C
wind
direction
speed
KPH
gust
KPH
rain 1hr
cm
rain 24hr
cm
rain mn
cm
humidity
%
barometer
mb
20260508043049 6 303 1.6 4.8 0.00 0.05 0.00 88 1024.3
20260508041544 6 329 3.2 6.4 0.00 0.05 0.00 87 1024.3
20260508040052 6 329 3.2 6.4 0.00 0.05 0.00 87 1024.2
20260508034543 7 322 3.2 4.8 0.00 0.05 0.00 85 1024.2
20260508033046 8 325 4.8 12.9 0.00 0.05 0.00 80 1024.2
20260508031546 7 311 4.8 12.9 0.00 0.05 0.00 84 1024.3
20260508030050 6 344 3.2 8.0 0.00 0.05 0.00 86 1024.1
20260508024540 7 334 0.0 4.8 0.00 0.05 0.00 85 1024.0
20260508023044 7 350 1.6 4.8 0.00 0.05 0.00 85 1024.0
20260508021544 7 337 1.6 6.4 0.00 0.05 0.00 84 1024.0
20260508020054 8 260 1.6 6.4 0.00 0.05 0.00 82 1024.1
20260508014545 8 254 0.0 3.2 0.00 0.05 0.00 82 1024.1
20260508013043 8 288 3.2 8.0 0.00 0.05 0.00 81 1024.2
20260508011549 8 307 6.4 12.9 0.00 0.05 0.00 85 1024.0
20260508010048 8 329 3.2 6.4 0.00 0.05 0.00 83 1024.3
20260508004545 8 298 0.0 3.2 0.00 0.05 0.00 83 1024.5
20260508003051 8 0 1.6 3.2 0.00 0.05 0.00 84 1024.6
20260508001547 8 314 0.0 9.7 0.00 0.05 0.00 84 1024.4
20260508000043 9 286 1.6 6.4 0.00 0.05 0.00 83 1024.5
20260507234552 9 271 1.6 6.4 0.00 0.05 0.00 84 1024.4
20260507233103 9 245 0.0 6.4 0.00 0.05 0.00 84 1024.7
20260507231548 9 232 0.0 8.0 0.00 0.05 0.00 85 1024.7
20260507230048 10 225 3.2 8.0 0.00 0.05 0.00 85 1024.8
20260507224544 10 336 3.2 8.0 0.00 0.05 0.00 84 1024.7
20260507223056 10 288 3.2 12.9 0.00 0.05 0.00 84 1024.9
20260507221547 10 275 4.8 8.0 0.00 0.05 0.00 85 1024.7
20260507220049 10 284 1.6 8.0 0.00 0.05 0.00 86 1024.9
20260507214547 10 329 4.8 11.3 0.00 0.05 0.05 86 1025.0
20260507213045 10 350 4.8 9.7 0.00 0.05 0.05 86 1024.9
20260507211549 10 307 4.8 9.7 0.00 0.05 0.05 86 1024.8
20260507210105 10 332 1.6 4.8 0.00 0.05 0.05 87 1024.9
20260507204544 10 340 1.6 4.8 0.00 0.05 0.05 87 1024.8
20260507203043 11 252 0.0 4.8 0.00 0.05 0.05 86 1024.7
20260507201543 11 342 0.0 8.0 0.00 0.05 0.05 84 1024.8
20260507200051 11 315 3.2 12.9 0.00 0.05 0.05 84 1024.9
20260507194555 11 0 1.6 4.8 0.00 0.08 0.05 85 1024.9
20260507193047 11 305 0.0 3.2 0.00 0.08 0.05 86 1024.7
20260507191547 11 0 0.0 3.2 0.00 0.08 0.05 86 1024.5
20260507184545 11 0 0.0 6.4 0.00 0.08 0.05 85 1024.7
20260507183110 11 305 0.0 3.2 0.00 0.08 0.05 86 1024.7
20260507181545 11 0 0.0 3.2 0.00 0.08 0.05 86 1024.7
20260507180043 11 307 3.2 4.8 0.00 0.08 0.05 87 1024.6
20260507174601 11 360 0.0 8.0 0.00 0.15 0.05 86 1024.5
20260507173047 11 308 3.2 6.4 0.00 0.15 0.05 85 1024.4
20260507171549 11 360 3.2 8.0 0.00 0.15 0.05 84 1024.2
20260507170046 11 323 3.2 11.3 0.00 0.15 0.05 82 1024.1
20260507164603 11 338 1.6 4.8 0.00 0.46 0.05 82 1024.0
20260507163047 11 315 3.2 6.4 0.00 0.46 0.05 80 1023.8
20260507161550 11 308 0.0 3.2 0.00 0.46 0.05 82 1023.4
20260507160041 11 0 0.0 4.8 0.03 0.46 0.05 81 1023.2
20260507154548 11 0 1.6 4.8 0.03 0.53 0.05 80 1023.1
20260507153045 11 325 1.6 6.4 0.05 0.53 0.05 80 1022.8
20260507151546 12 273 1.6 6.4 0.05 0.53 0.05 79 1023.0
20260507150047 11 286 1.6 19.3 0.00 0.48 0.00 78 1022.8
20260507144539 12 209 8.0 12.9 0.00 0.89 0.00 76 1022.9
20260507143047 13 238 14.5 25.7 0.00 0.86 0.00 67 1022.7
20260507141544 14 233 8.0 12.9 0.00 0.86 0.00 62 1022.5
20260507140045 14 220 9.7 17.7 0.00 0.86 0.00 60 1022.4
20260507134549 14 215 6.4 14.5 0.00 1.02 0.00 61 1022.3
20260507133050 14 224 6.4 12.9 0.00 1.02 0.00 62 1022.2
20260507131545 13 221 9.7 22.5 0.00 1.02 0.00 63 1022.2
20260507130046 14 237 12.9 22.5 0.00 1.02 0.00 62 1022.0
20260507124551 13 234 14.5 20.9 0.00 1.30 0.00 65 1022.1
20260507123042 14 276 19.3 27.4 0.00 1.30 0.00 64 1021.8
20260507121538 13 252 12.9 22.5 0.00 1.30 0.00 66 1021.7
20260507120044 13 228 8.0 19.3 0.00 1.30 0.00 68 1021.8
20260507114603 13 236 14.5 29.0 0.00 1.37 0.00 68 1021.9
20260507113103 13 213 16.1 30.6 0.00 1.37 0.00 67 1021.9
20260507111549 13 253 20.9 29.0 0.00 1.37 0.00 67 1022.0
20260507110042 13 217 20.9 35.4 0.00 1.37 0.00 66 1022.0
20260507104545 13 189 12.9 29.0 0.00 1.40 0.00 67 1022.3
20260507103050 13 202 14.5 27.4 0.00 1.40 0.00 66 1022.2
20260507101545 13 237 17.7 27.4 0.00 1.40 0.00 66 1022.2
20260507100051 13 222 19.3 27.4 0.00 1.40 0.00 65 1022.3
20260507094549 13 230 11.3 29.0 0.00 1.42 0.00 68 1022.3
20260507093051 13 236 12.9 30.6 0.00 1.42 0.00 68 1022.2
20260507091608 13 240 12.9 27.4 0.00 1.42 0.00 68 1022.2
20260507090044 13 188 11.3 29.0 0.00 1.42 0.00 68 1022.2
20260507084604 13 224 16.1 32.2 0.00 1.42 0.00 69 1022.2
20260507083048 12 211 22.5 35.4 0.00 1.42 0.00 69 1022.1
20260507081557 12 238 20.9 32.2 0.00 1.42 0.00 69 1022.1
20260507080052 12 259 9.7 25.7 0.00 1.42 0.00 71 1022.1
20260507074549 12 239 20.9 33.8 0.00 1.42 0.00 71 1021.8
20260507073104 12 213 17.7 32.2 0.00 1.42 0.00 71 1021.7
20260507071539 12 219 20.9 35.4 0.00 1.42 0.00 69 1021.4
20260507070049 12 226 24.1 40.2 0.00 1.42 0.00 69 1021.3
20260507064548 12 211 14.5 24.1 0.00 1.68 0.00 72 1021.0
20260507063044 11 193 6.4 27.4 0.00 1.68 0.00 77 1021.0
20260507061552 11 227 20.9 35.4 0.00 1.68 0.00 78 1020.8
20260507060056 11 238 14.5 24.1 0.00 1.68 0.00 77 1020.6
20260507054544 11 252 11.3 25.7 0.00 1.73 0.00 77 1020.7
20260507053049 11 238 17.7 32.2 0.00 1.73 0.00 76 1020.3
20260507051544 11 230 20.9 33.8 0.00 1.73 0.00 76 1020.3
20260507050044 11 227 17.7 32.2 0.00 1.73 0.00 78 1020.1
20260507044602 11 226 17.7 32.2 0.00 1.85 0.00 77 1019.8